Location: Berg
(47.2344°N, 9.5296°E)
Time: 06:34:18
(UTC+00:00)

Tiangong - Pass Details

Date: 28 September 2021
Orbit: 382 x 384 km, 41.5° (Epoch: 20 October)

Event Time Altitude Azimuth Distance (km) Brightness Sun altitude
Exits shadow 03:35:21 12° 172° (S) 1,262 3.6 -17.8°
Maximum altitude 03:36:06 13° 157° (SSE) 1,221 3.7 -17.7°
Drops below altitude 10° 03:37:41 10° 126° (SE) 1,394 4.4 -17.4°
Sets 03:40:33 0° 98° (E) 2,249 6.2 -17.0°
